Vorticity
7 4 8 9 12 2 6 8 11 14 5 24 27 25 8 8 8 10 5 5 3 3 1 6 2 6 7 14 24 13 0 13 11 19 0 17 13 13 14 14 10 4 11 9 -9
8 4 3 16 11 7 10 1 2 7 7 12 4 -2 7 14 13 7 8 5 5 6 5 7 10 13 18 23 19 13 2 20 15 4 6 17 20 18 7 10 9 18 17 14 -11
11 6 6 12 12 13 4 -1 14 5 13 -2 21 19 20 7 5 14 13 6 4 7 5 9 20 28 28 18 12 11 6 13 7 -3 8 16 19 16 7 5 15 6 11 23 12
14 6 8 12 13 7 4 3 11 4 7 8 2 16 -2 -3 20 3 4 7 9 11 17 19 21 22 25 20 10 8 12 16 9 3 5 12 16 13 18 -5 9 7 24 7 25
14 11 8 9 12 8 4 1 1 1 5 7 -6 -1 22 26 10 16 17 14 15 17 17 20 25 25 26 22 10 15 5 12 15 6 10 10 13 21 4 1 3 10 16 7 12
13 13 12 16 7 -4 2 10 13 4 3 -0 2 4 24 12 15 9 19 19 21 29 37 43 39 34 30 27 26 14 8 14 14 8 11 9 14 18 8 10 1 -3 7 15 -4
13 13 10 16 7 3 4 11 14 -9 -3 9 5 26 14 19 11 17 26 29 49 51 40 25 6 19 23 19 47 57 16 15 17 4 16 7 13 14 14 36 24 -8 6 -4 56
8 10 10 18 7 2 2 -0 3 -0 3 8 29 15 11 13 20 22 14 36 14 24 -4 2 9 10 12 0 -3 27 60 26 20 9 14 4 3 31 1 2 33 6 9 32 -32
6 9 7 18 10 3 1 0 2 4 8 18 24 9 23 16 33 0 -7 23 24 4 9 9 13 3 1 23 1 15 15 66 20 8 18 -0 12 13 6 20 11 6 17 18 -26
6 5 8 10 10 7 -0 0 -20 14 12 16 8 14 19 21 1 -3 5 13 8 5 8 10 15 31 -1 13 -6 34 22 42 28 18 17 5 3 26 6 -3 18 -1 15 -24 -34
32 20 3 6 11 8 -1 -2 -13 -2 26 21 9 18 18 -4 8 13 12 12 7 3 11 20 3 19 27 6 18 17 31 37 21 21 9 8 4 24 20 -8 37 2 6 16 -8
14 30 13 4 8 5 -1 9 -15 -1 31 9 12 17 10 2 -0 -1 13 18 14 13 10 12 13 12 15 34 15 9 31 18 5 20 8 5 29 5 18 -3 36 6 5 23 -35
14 20 23 4 9 4 1 3 -2 28 20 16 12 -4 -5 -1 8 7 17 16 20 14 15 13 17 2 55 10 12 36 14 15 -10 22 6 23 24 8 -11 53 10 11 3 18 31
6 7 23 5 6 1 4 13 11 21 4 8 17 2 13 4 7 17 20 26 -5 10 10 21 29 35 10 31 38 1 18 8 0 17 0 7 31 4 10 32 17 2 11 7 12
1 9 15 2 7 3 7 -28 20 22 6 1 7 1 9 6 0 13 17 32 13 -1 32 33 25 36 21 29 8 9 18 -0 11 13 16 21 26 35 -62 42 15 -3 2 10 3
3 11 14 5 6 4 4 -17 24 18 12 12 -3 12 10 9 14 9 1 2 33 6 25 9 7 22 14 17 5 -14 11 10 9 26 28 19 -36 51 29 54 12 10 6 6 7
9 13 10 6 5 4 2 7 13 10 -0 5 9 5 6 6 5 17 9 4 25 5 13 5 1 4 4 5 4 27 27 4 26 9 -24 2 5 35 39 11 19 5 -10 -3 -9
10 11 11 6 7 -25 9 32 22 10 4 7 -2 7 13 6 9 6 13 15 13 -2 9 9 8 1 17 7 1 20 12 20 7 -8 -1 -2 10 29 22 31 19 15 -7 12 20
8 9 6 3 -3 2 18 15 14 14 -4 1 -2 -0 6 7 5 11 9 11 12 16 0 -10 15 8 6 8 9 12 16 27 10 -1 -7 20 17 22 6 15 19 14 16 4 7
6 5 4 6 1 8 12 11 16 10 -6 -3 -3 1 5 10 7 13 14 11 17 11 21 20 -5 -7 23 15 6 -0 2 16 23 9 -9 11 14 6 9 12 18 21 8 10 17
6 1 5 -2 7 7 11 13 13 3 -1 -1 6 -0 6 11 10 9 16 17 13 8 13 7 23 29 12 23 5 3 5 13 6 30 11 -5 3 3 15 12 5 13 22 26 23
5 10 11 9 8 13 9 15 15 11 5 0 4 -1 0 12 10 0 2 5 10 18 17 7 23 8 1 12 11 10 5 5 17 -2 -4 -4 5 5 1 3 4 4 11 14 12
-9 8 11 8 11 10 10 10 17 12 7 5 4 2 -3 10 3 6 4 -6 1 9 15 15 5 9 13 11 15 11 2 6 8 12 6 1 -2 1 7 8 8 8 10 9 6
-6 10 11 6 9 12 13 16 12 10 9 8 7 8 15 13 14 10 14 15 12 10 13 11 8 13 13 12 10 6 3 4 -5 3 -6 2 4 -0 -2 -4 -4 -1 -1 -2 2
6 17 9 15 11 11 10 12 15 14 15 14 11 10 12 11 12 11 12 10 14 14 9 12 9 6 7 7 6 5 6 7 8 10 13 9 9 7 6 7 8 3 -2 -6 -4
18 8 8 13 10 8 10 11 10 8 14 12 12 14 17 15 14 15 16 15 17 14 15 14 8 4 4 4 4 5 3 2 4 4 7 15 12 10 9 16 17 14 11 9 18
8 11 14 15 12 8 7 7 7 7 8 9 8 8 7 9 9 8 10 11 11 13 15 16 19 19 20 22 28 21 20 19 22 23 21 17 13 16 18 16 15 18 15 14 19
Height
5732 5729 5727 5725 5724 5722 5719 5718 5715 5711 5708 5706 5703 5700 5698 5695 5694 5693 5689 5686 5684 5682 5680 5678 5676 5672 5671 5670 5670 5670 5671 5672 5683 5689 5694 5702 5698 5710 5718 5721 5727 5738 5749 5750 5754
5720 5718 5716 5717 5713 5711 5710 5709 5708 5703 5699 5696 5694 5691 5687 5684 5683 5680 5675 5670 5667 5667 5664 5660 5657 5654 5652 5653 5651 5650 5656 5660 5677 5675 5680 5690 5690 5699 5705 5710 5718 5727 5739 5738 5747
5708 5705 5705 5706 5703 5702 5700 5700 5699 5696 5691 5687 5684 5681 5678 5675 5671 5665 5660 5655 5652 5649 5644 5640 5637 5635 5634 5633 5634 5635 5643 5654 5658 5661 5668 5672 5678 5687 5691 5700 5717 5726 5732 5734 5736
5693 5693 5693 5693 5694 5694 5691 5690 5689 5688 5683 5678 5676 5671 5667 5663 5657 5651 5646 5640 5635 5629 5624 5621 5617 5616 5617 5616 5617 5617 5630 5636 5645 5647 5655 5663 5670 5677 5683 5699 5708 5714 5722 5727 5733
5679 5678 5682 5681 5684 5685 5683 5682 5681 5679 5674 5670 5666 5661 5653 5649 5641 5637 5631 5624 5618 5613 5607 5602 5598 5595 5597 5600 5599 5602 5616 5622 5630 5635 5645 5653 5659 5667 5674 5684 5691 5707 5716 5723 5727
5664 5666 5668 5670 5673 5675 5674 5674 5673 5671 5667 5662 5656 5649 5642 5638 5631 5624 5618 5611 5603 5596 5589 5585 5583 5581 5582 5584 5584 5591 5597 5607 5614 5622 5633 5643 5651 5656 5667 5676 5688 5701 5706 5717 5722
5650 5653 5656 5658 5661 5664 5666 5667 5667 5663 5658 5653 5646 5639 5634 5629 5622 5615 5608 5599 5591 5584 5581 5580 5578 5576 5576 5577 5576 5576 5578 5589 5601 5614 5625 5636 5639 5649 5658 5671 5684 5696 5702 5712 5718
5636 5640 5644 5647 5652 5655 5658 5660 5658 5655 5649 5644 5637 5633 5627 5622 5615 5610 5604 5595 5588 5585 5583 5580 5578 5575 5573 5573 5571 5568 5565 5573 5593 5602 5618 5627 5640 5644 5650 5662 5674 5687 5698 5708 5717
5622 5627 5632 5638 5642 5646 5649 5652 5650 5647 5642 5637 5633 5629 5622 5617 5612 5610 5603 5596 5589 5586 5583 5580 5576 5573 5570 5567 5565 5564 5563 5564 5583 5597 5613 5623 5634 5638 5647 5658 5671 5684 5696 5707 5717
5603 5611 5620 5627 5632 5637 5641 5644 5642 5641 5636 5631 5629 5626 5619 5615 5613 5609 5603 5596 5590 5587 5583 5577 5573 5569 5566 5564 5565 5562 5561 5564 5579 5594 5611 5620 5631 5634 5645 5656 5669 5681 5693 5703 5712
5583 5595 5606 5616 5622 5628 5635 5639 5640 5636 5630 5629 5626 5621 5616 5617 5614 5607 5600 5595 5591 5586 5580 5574 5570 5565 5562 5561 5561 5561 5563 5570 5584 5598 5611 5621 5630 5636 5646 5654 5665 5678 5689 5698 5708
5569 5580 5594 5605 5612 5622 5629 5632 5631 5630 5626 5625 5623 5619 5618 5617 5612 5606 5600 5595 5589 5583 5577 5572 5567 5564 5561 5559 5560 5563 5568 5577 5591 5602 5614 5622 5629 5639 5647 5656 5663 5674 5686 5694 5703
5557 5569 5581 5593 5607 5617 5624 5626 5627 5623 5624 5623 5620 5620 5619 5617 5611 5606 5600 5594 5588 5584 5578 5571 5569 5566 5562 5561 5562 5567 5574 5585 5597 5606 5616 5622 5629 5637 5646 5649 5661 5670 5680 5692 5699
5547 5560 5573 5588 5604 5612 5620 5622 5622 5620 5622 5622 5621 5621 5619 5616 5612 5606 5600 5595 5589 5585 5579 5573 5571 5568 5567 5568 5570 5576 5585 5593 5605 5613 5620 5623 5633 5639 5643 5647 5660 5669 5679 5689 5696
5538 5553 5566 5585 5599 5609 5615 5617 5615 5618 5620 5623 5623 5623 5620 5617 5614 5608 5601 5595 5591 5587 5583 5580 5576 5576 5576 5576 5580 5588 5595 5603 5611 5616 5621 5628 5637 5641 5645 5649 5659 5667 5678 5687 5694
5534 5546 5565 5585 5597 5607 5610 5615 5615 5618 5618 5622 5624 5623 5621 5618 5614 5609 5604 5599 5595 5592 5589 5585 5582 5583 5585 5587 5591 5595 5603 5608 5614 5619 5628 5632 5642 5640 5643 5646 5658 5668 5676 5683 5689
5529 5547 5569 5586 5596 5604 5609 5613 5616 5617 5622 5626 5626 5624 5622 5620 5616 5611 5607 5603 5600 5598 5596 5593 5592 5593 5596 5599 5601 5601 5610 5615 5619 5625 5635 5639 5639 5639 5643 5650 5659 5667 5675 5682 5690
5532 5553 5572 5585 5597 5603 5606 5611 5614 5619 5624 5626 5626 5625 5624 5621 5618 5614 5610 5608 5605 5603 5602 5601 5601 5602 5604 5605 5608 5610 5613 5619 5624 5631 5637 5641 5643 5643 5649 5653 5662 5669 5676 5683 5688
5540 5559 5576 5587 5596 5602 5607 5610 5614 5620 5625 5627 5628 5627 5626 5623 5621 5617 5614 5612 5611 5609 5609 5607 5607 5608 5609 5611 5614 5617 5620 5624 5630 5636 5643 5644 5646 5648 5653 5657 5663 5669 5674 5681 5688
5553 5567 5579 5591 5598 5604 5608 5610 5615 5621 5625 5628 5628 5629 5628 5626 5624 5620 5618 5616 5616 5614 5612 5612 5613 5613 5614 5617 5620 5624 5629 5633 5636 5642 5646 5648 5651 5654 5658 5662 5667 5673 5678 5684 5689
5565 5576 5587 5594 5602 5606 5609 5613 5617 5622 5626 5629 5629 5630 5630 5628 5628 5625 5623 5621 5620 5619 5618 5618 5618 5620 5621 5623 5626 5630 5634 5638 5642 5646 5650 5653 5656 5661 5665 5668 5672 5677 5682 5686 5690
5577 5587 5593 5600 5605 5608 5612 5616 5620 5624 5628 5630 5631 5632 5631 5631 5631 5630 5628 5627 5625 5624 5624 5624 5623 5624 5626 5630 5633 5636 5639 5643 5648 5653 5655 5659 5663 5664 5667 5671 5676 5679 5684 5686 5688
5589 5595 5599 5604 5608 5611 5616 5620 5623 5626 5629 5631 5632 5633 5634 5634 5634 5633 5633 5632 5631 5631 5630 5630 5631 5632 5632 5636 5639 5641 5645 5649 5652 5656 5659 5663 5666 5669 5672 5674 5676 5678 5678 5679 5681
5600 5604 5607 5610 5612 5617 5621 5624 5627 5630 5632 5633 5635 5635 5636 5637 5636 5636 5635 5636 5635 5635 5636 5636 5636 5637 5639 5639 5641 5645 5649 5653 5656 5660 5661 5663 5666 5668 5671 5673 5675 5675 5675 5676 5677
5607 5608 5613 5616 5619 5623 5626 5629 5631 5633 5635 5637 5638 5638 5639 5639 5639 5639 5639 5639 5639 5639 5640 5641 5641 5642 5644 5645 5646 5649 5652 5655 5657 5660 5663 5665 5666 5667 5669 5671 5673 5674 5674 5671 5670
5616 5618 5620 5623 5626 5629 5632 5634 5635 5637 5639 5641 5642 5643 5643 5644 5645 5645 5644 5643 5644 5644 5644 5645 5646 5645 5645 5647 5649 5652 5654 5656 5657 5660 5664 5664 5665 5665 5665 5666 5666 5666 5666 5666 5665
5625 5626 5629 5630 5633 5636 5638 5640 5642 5644 5646 5647 5649 5649 5650 5651 5652 5652 5652 5652 5651 5651 5651 5650 5651 5652 5652 5652 5654 5655 5655 5657 5658 5660 5662 5663 5664 5662 5662 5662 5661 5661 5660 5660 5658